Time,TemperatureF,DewpointF,PressureIn,WindDirection,WindDirectionDegrees,WindSpeedMPH,WindSpeedGustMPH,Humidity,HourlyPrecipIn,Conditions,Clouds,dailyrainin,SolarRadiationWatts/m^2,SoftwareType,DateUTC
2013-07-07 00:01:00,71.0,70.0,30.22,SW,233,0.0,0.0,96,0.04,,,0.25,0.000000,,2013-07-07 04:01:00,
2013-07-07 00:31:00,71.0,70.0,30.23,SW,233,0.0,0.0,96,0.04,,,0.25,0.000000,,2013-07-07 04:31:00,
2013-07-07 00:41:00,71.0,70.0,30.23,SW,233,0.0,0.0,96,0.04,,,0.25,0.000000,,2013-07-07 04:41:00,
2013-07-07 00:51:00,71.0,70.0,30.23,SW,233,0.0,0.0,96,0.04,,,0.25,0.000000,,2013-07-07 04:51:00,
2013-07-07 01:01:00,71.0,70.0,30.23,SW,233,0.0,0.0,96,0.04,,,0.25,0.000000,,2013-07-07 05:01:00,
2013-07-07 01:11:00,71.0,70.0,30.23,SW,233,0.0,0.0,96,0.04,,,0.25,0.000000,,2013-07-07 05:11:00,
2013-07-07 02:01:00,70.0,69.0,30.23,SSW,194,1.0,2.0,98,0.00,,,0.29,0.000000,,2013-07-07 06:01:00,
2013-07-07 02:11:00,70.0,69.0,30.23,SSW,194,0.0,2.0,98,0.00,,,0.29,0.000000,,2013-07-07 06:11:00,
2013-07-07 02:21:00,71.0,70.0,30.22,SSW,209,0.0,0.0,98,0.00,,,0.29,0.000000,,2013-07-07 06:21:00,
2013-07-07 02:32:00,71.0,70.0,30.22,SW,231,2.0,3.0,98,0.00,,,0.29,0.000000,,2013-07-07 06:32:00,
2013-07-07 02:43:00,71.0,70.0,30.22,SW,229,2.0,4.0,98,0.00,,,0.29,0.000000,,2013-07-07 06:43:00,
2013-07-07 02:52:00,71.0,70.0,30.21,SW,226,1.0,4.0,98,0.00,,,0.29,0.000000,,2013-07-07 06:52:00,
2013-07-07 03:02:00,71.0,70.0,30.21,South,178,1.0,3.0,98,0.00,,,0.29,0.000000,,2013-07-07 07:02:00,
2013-07-07 03:11:00,71.0,70.0,30.21,South,171,0.0,2.0,98,0.00,,,0.29,0.000000,,2013-07-07 07:11:00,
2013-07-07 03:22:00,71.0,70.0,30.20,South,171,0.0,1.0,98,0.00,,,0.29,0.000000,,2013-07-07 07:22:00,
2013-07-07 03:33:00,71.0,70.0,30.20,South,171,1.0,2.0,98,0.00,,,0.29,0.000000,,2013-07-07 07:33:00,
2013-07-07 03:44:00,71.0,70.0,30.20,SSE,150,0.0,1.0,98,0.00,,,0.29,0.000000,,2013-07-07 07:44:00,
2013-07-07 03:53:00,71.0,70.0,30.19,SSE,150,0.0,1.0,98,0.00,,,0.29,0.000000,,2013-07-07 07:53:00,
2013-07-07 04:02:00,71.0,70.0,30.19,SSE,150,1.0,1.0,98,0.00,,,0.29,0.000000,,2013-07-07 08:02:00,
2013-07-07 04:12:00,71.0,70.0,30.19,SSE,148,0.0,2.0,98,0.00,,,0.29,0.000000,,2013-07-07 08:12:00,
2013-07-07 04:22:00,71.0,70.0,30.19,SSW,196,0.0,2.0,98,0.00,,,0.29,0.000000,,2013-07-07 08:22:00,
2013-07-07 04:34:00,71.0,70.0,30.19,SSW,196,0.0,0.0,98,0.00,,,0.29,0.000000,,2013-07-07 08:34:00,
2013-07-07 04:44:00,70.0,69.0,30.19,SSE,168,1.0,4.0,98,0.00,,,0.29,0.000000,,2013-07-07 08:44:00,
2013-07-07 04:53:00,70.0,69.0,30.19,WSW,249,1.0,3.0,98,0.00,,,0.29,0.000000,,2013-07-07 08:53:00,
2013-07-07 05:02:00,70.0,69.0,30.19,SW,219,1.0,2.0,98,0.00,,,0.29,0.000000,,2013-07-07 09:02:00,
2013-07-07 05:12:00,71.0,71.0,30.19,SW,230,1.0,3.0,99,0.00,,,0.29,0.000000,,2013-07-07 09:12:00,
2013-07-07 05:22:00,71.0,71.0,30.20,SW,231,1.0,3.0,99,0.00,,,0.29,0.000000,,2013-07-07 09:22:00,
2013-07-07 05:34:00,71.0,71.0,30.20,South,186,1.0,3.0,99,0.00,,,0.29,0.000000,,2013-07-07 09:34:00,
2013-07-07 05:43:00,71.0,71.0,30.20,South,186,1.0,3.0,99,0.00,,,0.29,0.000000,,2013-07-07 09:43:00,
2013-07-07 05:53:00,71.0,71.0,30.20,South,179,1.0,3.0,99,0.01,,,0.30,0.000000,,2013-07-07 09:53:00,
2013-07-07 06:03:00,71.0,71.0,30.20,WSW,242,0.0,3.0,99,0.01,,,0.30,0.000000,,2013-07-07 10:03:00,
2013-07-07 06:12:00,71.0,71.0,30.20,WSW,242,1.0,2.0,99,0.01,,,0.30,0.000000,,2013-07-07 10:12:00,
2013-07-07 06:22:00,71.0,71.0,30.20,SW,223,1.0,3.0,99,0.01,,,0.30,9.000000,,2013-07-07 10:22:00,
2013-07-07 06:32:00,71.0,71.0,30.20,SSW,196,0.0,3.0,99,0.01,,,0.30,5.000000,,2013-07-07 10:32:00,
2013-07-07 06:43:00,71.0,71.0,30.20,South,171,1.0,2.0,99,0.01,,,0.30,18.000000,,2013-07-07 10:43:00,
2013-07-07 06:52:00,71.0,71.0,30.20,SW,217,1.0,3.0,99,0.00,,,0.30,49.000000,,2013-07-07 10:52:00,
2013-07-07 07:02:00,71.0,71.0,30.19,SSW,192,2.0,4.0,99,0.00,,,0.30,40.000000,,2013-07-07 11:02:00,
2013-07-07 07:11:00,71.0,71.0,30.20,SSW,198,2.0,4.0,99,0.00,,,0.30,42.000000,,2013-07-07 11:11:00,
2013-07-07 07:23:00,71.0,71.0,30.20,SSW,197,1.0,4.0,99,0.00,,,0.29,49.000000,,2013-07-07 11:23:00,
2013-07-07 07:34:00,71.0,71.0,30.20,South,188,2.0,3.0,99,0.00,,,0.29,83.000000,,2013-07-07 11:34:00,
2013-07-07 07:43:00,71.0,71.0,30.20,SW,229,1.0,4.0,99,0.00,,,0.29,77.000000,,2013-07-07 11:43:00,
2013-07-07 07:53:00,71.0,71.0,30.20,WSW,238,1.0,4.0,99,0.00,,,0.29,88.000000,,2013-07-07 11:53:00,
2013-07-07 08:02:00,72.0,72.0,30.20,SSE,163,2.0,3.0,99,0.00,,,0.29,134.000000,,2013-07-07 12:02:00,
2013-07-07 08:12:00,72.0,72.0,30.20,South,179,1.0,4.0,99,0.00,,,0.29,176.000000,,2013-07-07 12:12:00,
2013-07-07 08:22:00,72.0,72.0,30.20,SSE,161,1.0,4.0,99,0.00,,,0.29,165.000000,,2013-07-07 12:22:00,
2013-07-07 08:34:00,72.0,71.0,30.21,South,183,3.0,5.0,98,0.00,,,0.29,199.000000,,2013-07-07 12:34:00,
2013-07-07 08:43:00,73.0,72.0,30.20,WSW,238,3.0,4.0,98,0.00,,,0.29,341.000000,,2013-07-07 12:43:00,
2013-07-07 08:52:00,73.0,72.0,30.21,SW,222,3.0,8.0,98,0.00,,,0.29,290.000000,,2013-07-07 12:52:00,
2013-07-07 09:02:00,73.0,72.0,30.21,WSW,243,3.0,7.0,97,0.00,,,0.29,276.000000,,2013-07-07 13:02:00,
2013-07-07 09:12:00,73.0,72.0,30.21,WSW,248,4.0,6.0,96,0.00,,,0.29,116.000000,,2013-07-07 13:12:00,
2013-07-07 09:22:00,73.0,72.0,30.22,SSW,200,2.0,5.0,96,0.00,,,0.29,153.000000,,2013-07-07 13:22:00,
2013-07-07 09:34:00,74.0,72.0,30.22,WSW,237,5.0,8.0,94,0.00,,,0.29,167.000000,,2013-07-07 13:34:00,
2013-07-07 09:43:00,74.0,72.0,30.22,SSW,208,1.0,6.0,94,0.00,,,0.29,227.000000,,2013-07-07 13:43:00,
2013-07-07 09:52:00,74.0,72.0,30.22,SW,234,4.0,8.0,93,0.00,,,0.29,283.000000,,2013-07-07 13:52:00,
2013-07-07 10:02:00,74.0,72.0,30.21,SSW,198,4.0,8.0,93,0.00,,,0.29,322.000000,,2013-07-07 14:02:00,
2013-07-07 10:12:00,75.0,72.0,30.21,SW,215,6.0,10.0,91,0.00,,,0.29,274.000000,,2013-07-07 14:12:00,
2013-07-07 10:22:00,75.0,72.0,30.21,WSW,248,4.0,7.0,91,0.00,,,0.29,236.000000,,2013-07-07 14:22:00,
2013-07-07 10:34:00,76.0,73.0,30.21,SSW,202,5.0,9.0,90,0.00,,,0.29,334.000000,,2013-07-07 14:34:00,
2013-07-07 10:43:00,76.0,73.0,30.21,WSW,241,2.0,7.0,91,0.00,,,0.29,262.000000,,2013-07-07 14:43:00,
2013-07-07 10:53:00,76.0,73.0,30.21,WSW,237,2.0,5.0,91,0.00,,,0.29,279.000000,,2013-07-07 14:53:00,
2013-07-07 11:02:00,77.0,74.0,30.21,WNW,286,3.0,8.0,89,0.00,,,0.29,508.000000,,2013-07-07 15:02:00,
2013-07-07 11:11:00,77.0,73.0,30.21,West,260,6.0,12.0,87,0.00,,,0.29,339.000000,,2013-07-07 15:11:00,
2013-07-07 11:22:00,76.0,72.0,30.21,SSW,196,3.0,7.0,88,0.00,,,0.29,345.000000,,2013-07-07 15:22:00,
2013-07-07 11:34:00,76.0,72.0,30.21,SSW,202,4.0,6.0,88,0.00,,,0.29,155.000000,,2013-07-07 15:34:00,
2013-07-07 11:43:00,76.0,72.0,30.20,SW,216,2.0,8.0,88,0.00,,,0.29,308.000000,,2013-07-07 15:43:00,
2013-07-07 11:52:00,77.0,73.0,30.21,SW,222,4.0,9.0,87,0.00,,,0.29,631.000000,,2013-07-07 15:52:00,
2013-07-07 12:01:00,78.0,73.0,30.21,West,277,4.0,10.0,85,0.00,,,0.29,353.000000,,2013-07-07 16:01:00,
2013-07-07 12:11:00,78.0,73.0,30.20,SSW,200,3.0,9.0,86,0.00,,,0.29,355.000000,,2013-07-07 16:11:00,
2013-07-07 12:23:00,77.0,72.0,30.21,South,171,4.0,10.0,85,0.00,,,0.29,352.000000,,2013-07-07 16:23:00,
2013-07-07 12:43:00,78.0,73.0,30.20,SE,130,3.0,8.0,86,0.00,,,0.29,986.000000,,2013-07-07 16:43:00,
2013-07-07 12:53:00,79.0,74.0,30.19,South,184,5.0,9.0,85,0.00,,,0.29,689.000000,,2013-07-07 16:53:00,
2013-07-07 13:02:00,79.0,74.0,30.19,WSW,255,4.0,8.0,86,0.00,,,0.29,554.000000,,2013-07-07 17:02:00,
2013-07-07 13:12:00,77.0,71.0,30.19,WSW,252,5.0,9.0,83,0.00,,,0.29,149.000000,,2013-07-07 17:12:00,
2013-07-07 13:22:00,76.0,72.0,30.19,NNW,347,1.0,3.0,87,0.00,,,0.29,234.000000,,2013-07-07 17:22:00,
2013-07-07 13:34:00,77.0,73.0,30.19,SSW,200,2.0,4.0,88,0.00,,,0.29,524.000000,,2013-07-07 17:34:00,
2013-07-07 13:43:00,78.0,73.0,30.18,WSW,255,3.0,8.0,86,0.00,,,0.29,285.000000,,2013-07-07 17:43:00,
2013-07-07 13:53:00,78.0,73.0,30.18,South,178,3.0,9.0,86,0.00,,,0.29,480.000000,,2013-07-07 17:53:00,
2013-07-07 14:02:00,78.0,73.0,30.18,West,260,2.0,12.0,85,0.00,,,0.29,461.000000,,2013-07-07 18:02:00,
2013-07-07 14:11:00,79.0,74.0,30.17,ESE,123,4.0,9.0,85,0.00,,,0.29,362.000000,,2013-07-07 18:11:00,
2013-07-07 14:22:00,78.0,73.0,30.17,SW,233,4.0,10.0,85,0.00,,,0.29,380.000000,,2013-07-07 18:22:00,
2013-07-07 14:33:00,78.0,73.0,30.18,South,183,6.0,11.0,86,0.00,,,0.29,308.000000,,2013-07-07 18:33:00,
2013-07-07 14:43:00,78.0,74.0,30.17,South,180,6.0,11.0,87,0.00,,,0.29,664.000000,,2013-07-07 18:43:00,
2013-07-07 14:53:00,77.0,73.0,30.18,SW,232,5.0,10.0,88,0.00,,,0.29,387.000000,,2013-07-07 18:53:00,
2013-07-07 15:01:00,77.0,74.0,30.17,SW,223,3.0,8.0,89,0.00,,,0.29,520.000000,,2013-07-07 19:01:00,
2013-07-07 15:11:00,77.0,74.0,30.16,SSW,195,3.0,10.0,89,0.00,,,0.29,645.000000,,2013-07-07 19:11:00,
2013-07-07 15:22:00,78.0,74.0,30.16,SW,229,2.0,8.0,89,0.00,,,0.29,482.000000,,2013-07-07 19:22:00,
2013-07-07 15:34:00,79.0,74.0,30.16,SSW,205,4.0,10.0,86,0.00,,,0.29,422.000000,,2013-07-07 19:34:00,
2013-07-07 15:43:00,79.0,74.0,30.16,SSE,167,2.0,10.0,85,0.00,,,0.29,341.000000,,2013-07-07 19:43:00,
2013-07-07 15:54:00,80.0,75.0,30.16,SSE,148,2.0,7.0,84,0.00,,,0.29,441.000000,,2013-07-07 19:54:00,
2013-07-07 16:02:00,80.0,74.0,30.15,SE,143,3.0,8.0,81,0.00,,,0.29,390.000000,,2013-07-07 20:02:00,
2013-07-07 16:11:00,80.0,74.0,30.15,SSE,155,2.0,6.0,83,0.00,,,0.29,338.000000,,2013-07-07 20:11:00,
2013-07-07 16:22:00,79.0,73.0,30.15,WSW,255,4.0,9.0,82,0.00,,,0.29,327.000000,,2013-07-07 20:22:00,
2013-07-07 16:34:00,80.0,75.0,30.15,SE,132,2.0,6.0,84,0.00,,,0.29,473.000000,,2013-07-07 20:34:00,
2013-07-07 16:42:00,80.0,74.0,30.14,SE,126,3.0,7.0,81,0.00,,,0.29,318.000000,,2013-07-07 20:42:00,
2013-07-07 16:53:00,80.0,74.0,30.13,SSW,197,2.0,6.0,82,0.00,,,0.29,489.000000,,2013-07-07 20:53:00,
2013-07-07 17:02:00,81.0,74.0,30.13,South,169,4.0,7.0,80,0.00,,,0.29,397.000000,,2013-07-07 21:02:00,
2013-07-07 17:11:00,81.0,74.0,30.13,SW,232,3.0,6.0,80,0.00,,,0.29,455.000000,,2013-07-07 21:11:00,
2013-07-07 17:22:00,81.0,74.0,30.13,SSW,202,3.0,10.0,79,0.00,,,0.29,345.000000,,2013-07-07 21:22:00,
2013-07-07 17:33:00,81.0,73.0,30.13,SSW,211,3.0,7.0,78,0.00,,,0.29,239.000000,,2013-07-07 21:33:00,
2013-07-07 17:43:00,80.0,72.0,30.13,SSE,159,3.0,6.0,78,0.00,,,0.29,153.000000,,2013-07-07 21:43:00,
2013-07-07 17:53:00,80.0,73.0,30.14,WSW,240,2.0,5.0,79,0.00,,,0.29,156.000000,,2013-07-07 21:53:00,
2013-07-07 18:01:00,79.0,72.0,30.14,WSW,254,2.0,6.0,79,0.00,,,0.29,42.000000,,2013-07-07 22:01:00,
2013-07-07 18:11:00,79.0,73.0,30.14,SW,220,0.0,5.0,81,0.00,,,0.29,58.000000,,2013-07-07 22:11:00,
2013-07-07 18:22:00,77.0,69.0,30.14,West,274,3.0,7.0,76,0.00,,,0.27,0.000000,,2013-07-07 22:22:00,
2013-07-07 18:34:00,74.0,69.0,30.16,NNW,327,2.0,4.0,85,0.06,,,0.33,11.000000,,2013-07-07 22:34:00,
2013-07-07 18:43:00,71.0,68.0,30.14,WNW,291,1.0,5.0,89,0.11,,,0.38,67.000000,,2013-07-07 22:43:00,
2013-07-07 18:53:00,70.0,67.0,30.13,East,84,3.0,6.0,91,0.11,,,0.38,88.000000,,2013-07-07 22:53:00,
2013-07-07 19:02:00,70.0,68.0,30.15,East,85,2.0,7.0,93,0.11,,,0.38,32.000000,,2013-07-07 23:02:00,
2013-07-07 19:12:00,69.0,67.0,30.15,ENE,74,1.0,6.0,94,0.12,,,0.39,19.000000,,2013-07-07 23:12:00,
2013-07-07 19:22:00,69.0,68.0,30.16,WSW,239,0.0,3.0,95,0.12,,,0.39,18.000000,,2013-07-07 23:22:00,
2013-07-07 19:33:00,69.0,68.0,30.15,WNW,288,1.0,6.0,95,0.04,,,0.39,26.000000,,2013-07-07 23:33:00,
2013-07-07 19:43:00,69.0,68.0,30.15,ESE,105,1.0,4.0,96,0.01,,,0.39,32.000000,,2013-07-07 23:43:00,
2013-07-07 19:53:00,69.0,68.0,30.15,East,80,1.0,5.0,96,0.01,,,0.39,25.000000,,2013-07-07 23:53:00,
2013-07-07 20:01:00,69.0,68.0,30.16,South,188,0.0,2.0,96,0.03,,,0.41,14.000000,,2013-07-08 00:01:00,
2013-07-07 20:12:00,69.0,68.0,30.16,WNW,285,1.0,2.0,97,0.02,,,0.41,11.000000,,2013-07-08 00:12:00,
2013-07-07 20:22:00,69.0,68.0,30.16,WNW,295,0.0,1.0,97,0.02,,,0.41,12.000000,,2013-07-08 00:22:00,
2013-07-07 20:33:00,69.0,68.0,30.16,WNW,295,0.0,0.0,97,0.02,,,0.41,11.000000,,2013-07-08 00:33:00,
2013-07-07 20:43:00,69.0,68.0,30.16,NW,323,0.0,0.0,97,0.02,,,0.41,5.000000,,2013-07-08 00:43:00,
2013-07-07 20:53:00,69.0,68.0,30.16,SW,227,0.0,0.0,97,0.02,,,0.41,0.000000,,2013-07-08 00:53:00,
2013-07-07 21:01:00,69.0,68.0,30.16,SW,226,0.0,0.0,98,0.00,,,0.41,0.000000,,2013-07-08 01:01:00,
2013-07-07 21:11:00,69.0,68.0,30.16,SW,226,0.0,0.0,98,0.00,,,0.41,0.000000,,2013-07-08 01:11:00,
2013-07-07 21:22:00,69.0,68.0,30.17,SW,226,0.0,0.0,98,0.00,,,0.19,0.000000,,2013-07-08 01:22:00,
2013-07-07 21:32:00,69.0,68.0,30.17,SW,226,0.0,0.0,98,0.02,,,0.21,0.000000,,2013-07-08 01:32:00,
2013-07-07 21:43:00,69.0,68.0,30.18,SW,226,0.0,0.0,98,0.04,,,0.23,0.000000,,2013-07-08 01:43:00,
2013-07-07 21:52:00,69.0,68.0,30.18,SW,226,0.0,0.0,98,0.05,,,0.24,0.000000,,2013-07-08 01:52:00,
2013-07-07 22:02:00,68.0,67.0,30.18,South,189,0.0,0.0,98,0.06,,,0.25,0.000000,,2013-07-08 02:02:00,
2013-07-07 22:11:00,68.0,67.0,30.19,South,189,0.0,0.0,98,0.06,,,0.25,0.000000,,2013-07-08 02:11:00,
2013-07-07 22:22:00,68.0,67.0,30.19,SE,133,1.0,3.0,98,0.06,,,0.25,0.000000,,2013-07-08 02:22:00,
2013-07-07 22:33:00,68.0,67.0,30.19,SE,133,0.0,1.0,98,0.04,,,0.25,0.000000,,2013-07-08 02:33:00,
2013-07-07 22:42:00,69.0,68.0,30.19,SE,133,0.0,0.0,98,0.02,,,0.25,0.000000,,2013-07-08 02:42:00,
2013-07-07 22:52:00,68.0,67.0,30.19,SE,133,0.0,0.0,98,0.01,,,0.25,0.000000,,2013-07-08 02:52:00,
2013-07-07 23:02:00,69.0,68.0,30.20,SE,133,0.0,0.0,98,0.00,,,0.25,0.000000,,2013-07-08 03:02:00,
2013-07-07 23:12:00,69.0,68.0,30.19,SE,133,0.0,0.0,98,0.00,,,0.25,0.000000,,2013-07-08 03:12:00,
2013-07-07 23:23:00,69.0,68.0,30.20,SE,133,0.0,0.0,98,0.00,,,0.25,0.000000,,2013-07-08 03:23:00,
2013-07-07 23:34:00,68.0,67.0,30.19,SE,133,0.0,0.0,98,0.00,,,0.25,0.000000,,2013-07-08 03:34:00,
2013-07-07 23:42:00,68.0,67.0,30.19,NW,309,1.0,2.0,98,0.00,,,0.25,0.000000,,2013-07-08 03:42:00,
2013-07-07 23:52:00,68.0,67.0,30.20,WSW,245,2.0,4.0,98,0.02,,,0.27,0.000000,,2013-07-08 03:52:00,